Aggius, Italy

7:33 PM CET on November 23, 2017 (GMT +0100)
Aggius

Weather History for 16531 - August, 2013

Change the Weather History Date:

Wednesday, August 28, 2013

  Actual Average Record
Temperature  
Mean Temperature 74 °F -  
Max Temperature 83 °F 79 °F - ()
Min Temperature 65 °F 59 °F - ()
Cooling Degree Days 9    
Growing Degree Days 24 (Base 50)    
Moisture  
Dew Point 56 °F    
Average Humidity 55    
Maximum Humidity 78    
Minimum Humidity 27    
Precipitation  
Precipitation 0.00 in 0.05 in - ()
Sea Level Pressure  
Sea Level Pressure 29.95 in    
Wind  
Wind Speed 13 mph ()    
Max Wind Speed 34 mph    
Max Gust Speed -    
Visibility 9.2 miles    
Events      
T = Trace of Precipitation, MM = Missing Value Source: Averaged Metar Reports

Daily Weather History Graph

Daily Weather History Graph

Search for Another Location

Airport or City:

Trip Planner

Search our weather history database for the weather conditions in past years. The results will help you decide how hot, cold, wet, or windy it might be!

Date:

Astronomy

Aug. 28, 2013 Rise Set
Actual Time 6:44 AM CEST 8:00 PM CEST
Civil Twilight 6:16 AM CEST 8:29 PM CEST
Nautical Twilight 5:42 AM CEST 9:03 PM CEST
Astronomical Twilight 5:06 AM CEST 9:38 PM CEST
Moon No Moon Rise 2:24 PM CEST (8/28)
Length of Visible Light 14h 12m
Length of Day
13h 15m
Waning Gibbous, 50% of the Moon is Illuminated
Aug 28
Waning Gibbous
Sep 5
New
Sep 12
First Quarter
Sep 19
Full
Sep 27
Last Quarter

Hourly Weather History & Observations

Time (CEST) Temp. Heat Index Dew Point Humidity Pressure Visibility Wind Dir Wind Speed Gust Speed Precip Events Conditions
12:20 AM 71.6 °F - 57.2 °F 60% 29.92 in - WSW 12.7 mph - N/A   Clear
12:50 AM 71.6 °F - 59.0 °F 64% 29.92 in - WSW 15.0 mph - N/A   Clear
1:20 AM 71.6 °F - 57.2 °F 60% 29.92 in - SW 13.8 mph - N/A   Clear
1:50 AM 69.8 °F - 60.8 °F 73% 29.92 in - SW 15.0 mph - N/A   Clear
2:00 AM 69 °F - 60 °F 66% 29.92 in 19 mi SW 15.0 mph - -  
2:20 AM 69.8 °F - 60.8 °F 73% 29.89 in - SW 10.4 mph - N/A   Clear
2:50 AM 68.0 °F - 60.8 °F 78% 29.92 in - SW 17.3 mph - N/A   Clear
3:20 AM 68.0 °F - 60.8 °F 78% 29.92 in - SW 17.3 mph - N/A   Clear
3:50 AM 68.0 °F - 60.8 °F 78% 29.92 in - SSW 11.5 mph - N/A   Clear
4:20 AM 68.0 °F - 60.8 °F 78% 29.92 in - South 9.2 mph - N/A   Clear
4:50 AM 66.2 °F - 59.0 °F 78% 29.92 in - South 8.1 mph - N/A   Clear
5:00 AM 67 °F - 59 °F 70% 29.92 in 19 mi South 15.7 mph - -  
5:20 AM 66.2 °F - 59.0 °F 78% 29.89 in - South 10.4 mph - N/A   Clear
5:50 AM 66.2 °F - 59.0 °F 78% 29.92 in - SSW 10.4 mph - N/A   Clear
6:20 AM 66.2 °F - 59.0 °F 78% 29.92 in - South 6.9 mph - N/A   Clear
6:50 AM 68.0 °F - 60.8 °F 78% 29.92 in - SW 15.0 mph - N/A   Clear
7:20 AM 68.0 °F - 59.0 °F 73% 29.92 in - SW 12.7 mph - N/A   Clear
7:50 AM 69.8 °F - 59.0 °F 68% 29.92 in - SSW 9.2 mph - N/A   Clear
8:00 AM 71 °F - 60 °F 60% 29.92 in 19 mi South 9.2 mph - -   Scattered Clouds
8:20 AM 73.4 °F - 60.8 °F 65% 29.92 in - WSW 13.8 mph - N/A   Clear
8:50 AM 75.2 °F - 60.8 °F 61% 29.92 in 6.2 mi WSW 16.1 mph - N/A   Partly Cloudy
9:20 AM 77.0 °F - 59.0 °F 54% 29.95 in 6.2 mi WSW 13.8 mph - N/A   Partly Cloudy
9:50 AM 78.8 °F - 57.2 °F 47% 29.95 in 6.2 mi WSW 16.1 mph - N/A   Partly Cloudy
10:20 AM 78.8 °F - 55.4 °F 44% 29.95 in 6.2 mi West 15.0 mph - N/A   Scattered Clouds
10:50 AM 80.6 °F 80.3 °F 53.6 °F 39% 29.95 in 6.2 mi West 17.3 mph - N/A   Scattered Clouds
11:00 AM 80 °F - 53 °F 28% 29.95 in 19 mi WSW 33.6 mph - -   Partly Cloudy
11:20 AM 80.6 °F 80.3 °F 53.6 °F 39% 29.95 in 6.2 mi West 17.3 mph - N/A   Scattered Clouds
11:50 AM 80.6 °F 80.3 °F 53.6 °F 39% 29.95 in 6.2 mi West 16.1 mph - N/A   Scattered Clouds
12:20 PM 80.6 °F - 51.8 °F 37% 29.95 in 6.2 mi West 15.0 mph - N/A   Scattered Clouds
12:50 PM 80.6 °F - 51.8 °F 37% 29.95 in 6.2 mi West 16.1 mph - N/A   Partly Cloudy
1:20 PM 80.6 °F 80.3 °F 53.6 °F 39% 29.95 in 6.2 mi West 16.1 mph - N/A   Partly Cloudy
1:50 PM 80.6 °F 80.3 °F 53.6 °F 39% 29.95 in 6.2 mi West 16.1 mph - N/A   Partly Cloudy
2:00 PM 81 °F - 53 °F 27% 29.95 in 19 mi West 26.8 mph - -   Partly Cloudy
2:20 PM 82.4 °F 81.4 °F 53.6 °F 37% 29.95 in 6.2 mi WNW 13.8 mph - N/A   Partly Cloudy
2:50 PM 82.4 °F - 51.8 °F 35% 29.95 in 6.2 mi West 18.4 mph - N/A   Partly Cloudy
3:20 PM 82.4 °F - 51.8 °F 35% 29.95 in 6.2 mi West 18.4 mph - N/A   Partly Cloudy
3:50 PM 82.4 °F - 51.8 °F 35% 29.95 in 6.2 mi West 18.4 mph - N/A   Partly Cloudy
4:20 PM 82.4 °F - 50.0 °F 32% 29.95 in 6.2 mi West 15.0 mph - N/A   Partly Cloudy
4:50 PM 82.4 °F - 51.8 °F 35% 29.95 in 6.2 mi West 16.1 mph - N/A   Partly Cloudy
5:20 PM 80.6 °F - 51.8 °F 37% 29.95 in 6.2 mi West 16.1 mph - N/A   Partly Cloudy
5:50 PM 80.6 °F - 51.8 °F 37% 29.95 in 6.2 mi West 15.0 mph - N/A   Partly Cloudy
6:20 PM 80.6 °F 80.3 °F 53.6 °F 39% 29.95 in 6.2 mi West 13.8 mph - N/A   Partly Cloudy
6:50 PM 78.8 °F - 55.4 °F 44% 29.95 in - WNW 10.4 mph - N/A   Clear
7:20 PM 77.0 °F - 55.4 °F 47% 29.98 in - WNW 10.4 mph - N/A   Clear
7:50 PM 75.2 °F - 57.2 °F 53% 29.98 in - West 10.4 mph - N/A   Clear
8:00 PM 75 °F - 56 °F 41% 29.98 in 19 mi West 10.4 mph - -   Partly Cloudy
8:20 PM 75.2 °F - 55.4 °F 50% 29.98 in - West 10.4 mph - N/A   Clear
8:50 PM 73.4 °F - 57.2 °F 57% 29.98 in - West 11.5 mph - N/A   Clear
9:20 PM 73.4 °F - 57.2 °F 57% 29.98 in - WSW 15.0 mph - N/A   Clear
9:50 PM 69.8 °F - 57.2 °F 64% 30.01 in - South 4.6 mph - N/A   Clear
10:20 PM 69.8 °F - 57.2 °F 64% 30.01 in - SSW 5.8 mph - N/A   Clear
10:50 PM 68.0 °F - 55.4 °F 64% 29.98 in - SW 10.4 mph - N/A   Clear
11:20 PM 68.0 °F - 55.4 °F 64% 30.01 in - SW 9.2 mph - N/A   Clear
11:50 PM 69.8 °F - 57.2 °F 64% 30.01 in - West 11.5 mph - N/A   Clear